Location: Cuzcurrita-R�o Tir�n
(42.5415°N, 2.9642°W)
Time: 18:39:06
(UTC+00:00)

NOSS 3-1 (C) - Pass Details

Date: 17 January 2021
Orbit: 723 x 1485 km, 63.3° (Epoch: 02 March)

Event Time Altitude Azimuth Distance (km) Brightness Sun altitude
Rises 19:48:01 0° 326° (NW) 3,900 7.1 -29.3°
Reaches altitude 10° 19:50:37 10° 331° (NNW) 3,047 6.4 -29.8°
Enters shadow 19:56:38 47° 20° (NNE) 1,634 4.4 -30.9°
